Regional Weather Roundup
Issued by NWS Midland/Odessa, TX

Home | Current Version | Previous Version | Text Only | Print | Product List | Glossary On
Versions: 1 2 3 4 5 6 7 8 9 10 11 12 13 14 15 16 17 18 19 20 21 22 23 24 25 26 27 28 29 30 31 32 33 34 35 36 37 38 39 40 41 42 43 44 45 46 47 48 49 50
000
ASUS44 KMAF 201410
RWRMAF
MIDLAND AREA WEATHER ROUNDUP
NATIONAL WEATHER SERVICE MIDLAND TX
800 AM CST MON NOV 20 2017

...IN SOUTHWEST TEXAS AND SOUTHEAST NEW MEXICO...

CITY           SKY/WX    TMP DP  RH WIND       PRES   REMARKS
ALPINE         CLOUDY    47  26  44 CALM      30.19R
ANDREWS        FAIR      37  23  56 SW6       30.10S WCI  33
ARTESIA        CLOUDY    27  12  54 CALM      30.08S
BIG SPRING     CLOUDY    36  26  67 SE3       30.13R
CARLSBAD       CLEAR     26  22  84 CALM      30.08R
DRYDEN           N/A     40  26  57 W3        30.12R
FORT STOCKTON  CLEAR     40  27  59 S7        30.10R WCI  35
GUAD PASS      CLOUDY    40  17  39 SW17      30.13R WCI  31
HOBBS          CLEAR     28  21  74 SW6       30.08S WCI  22
LAMESA         FAIR      32  23  69 SW6       30.10R WCI  26
MARFA          CLEAR     31  22  69 CALM      30.17R
MIDLAND AIRPK  CLOUDY    43  25  49 S6        30.10S WCI  40
MIDLAND INTL   CLEAR     42  24  49 S7        30.09R WCI  38
ODESSA         CLEAR     42  24  49 SW9       30.10R WCI  37
PECOS          CLOUDY    32  23  68 CALM      30.11R
PRESIDIO       FAIR      42  24  48 N5        30.17R WCI  39
SEMINOLE       CLOUDY    33  23  67 W9        30.10R WCI  25
SNYDER         CLEAR     33  26  72 S8        30.11S WCI  27
WINK           CLEAR     31  23  72 NE5       30.09R WCI  26
$$
...OTHER STATIONS IN TEXAS...

CITY           SKY/WX    TMP DP  RH WIND       PRES   REMARKS
ABILENE        CLEAR     40  29  64 S10       30.12S WCI  33
AMARILLO       CLOUDY    34  19  54 SW14      29.97R WCI  25
AUSTIN         PTSUNNY   41  39  93 CALM      30.21R
BROWNSVILLE    CLOUDY    62  45  53 N10       30.17R
CORPUS CHRISTI CLOUDY    55  44  66 NE6       30.19S
DALLAS FTW     CLOUDY    43  32  65 CALM      30.19R
DEL RIO        CLEAR     43  33  68 CALM      30.17R
EL PASO        PTCLDY    39  17  41 N7        30.15R WCI  34
HOUSTON INT    PTSUNNY   47  42  83 CALM      30.22S
LUBBOCK        CLOUDY    36  20  52 SW12      30.04S WCI  28
SAN ANGELO     CLEAR     38  28  67 SW5       30.14R WCI  34
SAN ANTONIO    CLOUDY    46  37  71 NW3       30.21R
WACO           SUNNY     35  32  88 CALM      30.22R
WICHITA FALLS  PTCLDY    38  28  67 S16       29.94F WCI  29
$$
...OTHER LOCATIONS IN NEW MEXICO...

CITY           SKY/WX    TMP DP  RH WIND       PRES   REMARKS
ALAMOGORDO     CLOUDY    28  16  59 S3        30.17R
ALBUQUERQUE    CLOUDY    29   8  41 N7        30.19R WCI  22
CANNON AFB     CLOUDY    31  17  56 W10       30.02R WCI  22
CLOVIS         CLOUDY    33  18  53 W12       30.01R WCI  24
HOLLOMAN AFB   CLOUDY    24   8  52 NW3       30.19R
ROSWELL        CLOUDY    25  15  66 CALM      30.06F
RUIDOSO        CLOUDY    41   1  19 NW6G16    30.16R WCI  37
SANTA FE       CLOUDY    26   7  44 NW9       30.15R WCI  17
TRUTH OR CONSE PTCLDY    31   7  36 N5        30.17R WCI  26
TUCUMCARI      CLOUDY    28  12  51 SW8       29.97R WCI  20
$$



USA.gov is the U.S. government's official web portal to all federal, state and local government web resources and services.